This demonstration page uses our WeatherBlox Daily Observations layout. Learn more.

Left ArrowRight Arrow

47.50024, -111.30081

Hourly Observations for January 16, 2018

Temp ( °F °C ) Dew Point ( °F °C ) Humidity (%) Winds ( mph kmh ) Pressure ( in mb ) Visibility ( mi km ) Precip ( " mm )
12:53 am 00:53 Clear 21 -6.1 10 -12.2 62 62 S 8 13 30.43 1031 10 16 0.00 0.00
1:53 am 01:53 Clear 23 -5 9 -12.8 55 55 S 10 17 30.40 1030 10 16 0.00 0.00
2:53 am 02:53 Clear 25 -3.9 11 -11.7 55 55 S 18 30 30.38 1029 10 16 0.00 0.00
3:53 am 03:53 Clear 27 -2.8 13 -10.6 55 55 S 15 24 30.37 1028 10 16 0.00 0.00
4:53 am 04:53 Clear 26 -3.3 12 -11.1 55 55 SSW 20 31 30.36 1028 10 16 0.00 0.00
5:53 am 05:53 Clear 26 -3.3 11 -11.7 53 53 S 13 20 30.35 1028 10 16 0.00 0.00
6:53 am 06:53 Clear 25 -3.9 12 -11.1 58 58 S 15 24 30.34 1027 10 16 0.00 0.00
7:53 am 07:53 Clear 25 -3.9 15 -9.4 66 66 SSW 16 26 30.32 1027 10 16 0.00 0.00
8:53 am 08:53 Sunny 29 -1.7 15 -9.4 56 56 SSW 22 35 30.26 1025 10 16 0.00 0.00
9:53 am 09:53 Sunny 31 -0.6 17 -8.3 56 56 SSW 22 35 30.26 1025 10 16 0.00 0.00
10:53 am 10:53 Sunny 35 1.7 18 -7.8 50 50 SSW 17 28 30.25 1024 10 16 0.00 0.00
11:53 am 11:53 Sunny 38 3.3 20 -6.7 48 48 SSW 26 43 30.20 1023 10 16 0.00 0.00
12:53 pm 12:53 Sunny 39 3.9 22 -5.6 50 50 SSW 26 43 30.16 1021 10 16 0.00 0.00
1:53 pm 13:53 Sunny 41 5 23 -5 49 49 SW 20 31 30.15 1021 10 16 0.00 0.00
2:53 pm 14:53 Sunny 41 5 24 -4.4 51 51 SW 23 37 30.16 1021 10 16 0.00 0.00
3:53 pm 15:53 Sunny 41 5 24 -4.4 51 51 SW 22 35 30.16 1021 10 16 0.00 0.00
4:53 pm 16:53 Sunny 40 4.4 24 -4.4 53 53 SW 23 37 30.19 1022 10 16 0.00 0.00
5:53 pm 17:53 Clear 38 3.3 25 -3.9 60 60 SW 17 28 30.21 1023 10 16 0.00 0.00
6:53 pm 18:53 Clear 39 3.9 26 -3.3 60 60 SW 20 31 30.22 1023 10 16 0.00 0.00
7:53 pm 19:53 Clear 39 3.9 26 -3.3 60 60 SW 23 37 30.23 1024 10 16 0.00 0.00
8:53 pm 20:53 Clear 37 2.8 26 -3.3 65 65 SW 24 39 30.24 1024 10 16 0.00 0.00
9:53 pm 21:53 Clear 37 2.8 26 -3.3 65 65 SW 21 33 30.23 1024 10 16 0.00 0.00
10:53 pm 22:53 Clear 37 2.8 25 -3.9 62 62 SW 21 33 30.26 1025 10 16 0.00 0.00
11:53 pm 23:53 Clear 36 2.2 24 -4.4 62 62 SW 22 35 30.27 1025 10 16 0.00 0.00

Powered by AerisWeather